H1 CPF 2 NER 2022 12 26 9 360 01 glonass135 H2 1600801 9135 41330 2022 12 26 0 0 0 2022 12 29 23 45 0 900 1 1 0 0 0 1 H9 10 0 59939 0.00000 0 5694228.743 -17328054.957 17866099.913 10 0 59939 900.00000 0 5986392.210 -15024144.290 19754855.973 10 0 59939 1800.00000 0 6502457.571 -12546589.363 21260953.459 10 0 59939 2700.00000 0 7253006.040 -9962873.592 22355154.341 10 0 59939 3600.00000 0 8236053.835 -7342652.643 23016168.091 10 0 59939 4500.00000 0 9436969.014 -4755055.316 23231066.985 10 0 59939 5400.00000 0 10828931.240 -2266015.704 22995543.322 10 0 59939 6300.00000 0 12373917.044 64253.930 22314003.187 10 0 59939 7200.00000 0 14024171.346 2183545.614 21199494.227 10 0 59939 8100.00000 0 15724105.712 4049599.392 19673467.745 10 0 59939 9000.00000 0 17412545.833 5631627.907 17765378.375 10 0 59939 9900.00000 0 19025235.626 6911358.378 15512127.662 10 0 59939 10800.00000 0 20497494.138 7883548.433 12957360.863 10 0 59939 11700.00000 0 21766914.330 8555954.039 10150629.345 10 0 59939 12600.00000 0 22775990.255 8948750.602 7146433.908 10 0 59939 13500.00000 0 23474561.543 9093431.540 4003167.051 10 0 59939 14400.00000 0 23821971.177 9031230.896 781974.642 10 0 59939 15300.00000 0 23788844.163 8811136.953 -2454440.397 10 0 59939 16200.00000 0 23358410.555 8487581.673 -5643048.316 10 0 59939 17100.00000 0 22527315.460 8117904.843 -8721731.613 10 0 59939 18000.00000 0 21305880.493 7759701.706 -11630507.384 10 0 59939 18900.00000 0 19717804.659 7468168.008 -14312707.810 10 0 59939 19800.00000 0 17799316.532 7293556.524 -16716094.524 10 0 59939 20700.00000 0 15597813.210 7278854.251 -18793884.037 10 0 59939 21600.00000 0 13170043.298 7457779.886 -20505663.568 10 0 59939 22500.00000 0 10579910.429 7853187.214 -21818179.126 10 0 59939 23400.00000 0 7895989.857 8475942.531 -22705980.472 10 0 59939 24300.00000 0 5188862.376 9324323.760 -23151910.795 10 0 59939 25200.00000 0 2528377.129 10383966.623 -23147432.216 10 0 59939 26100.00000 0 -19042.453 11628359.903 -22692781.545 10 0 59939 27000.00000 0 -2392937.742 13019868.602 -21796954.177 10 0 59939 27900.00000 0 -4541094.109 14511241.571 -20477517.281 10 0 59939 28800.00000 0 -6421466.449 16047539.863 -18760256.750 10 0 59939 29700.00000 0 -8003672.529 17568404.471 -16678665.477 10 0 59939 30600.00000 0 -9269993.858 19010568.121 -14273283.450 10 0 59939 31500.00000 0 -10215844.455 20310505.548 -11590902.997 10 0 59939 32400.00000 0 -10849690.309 21407111.167 -8683654.959 10 0 59939 33300.00000 0 -11192425.179 22244292.035 -5607993.742 10 0 59939 34200.00000 0 -11276231.022 22773367.594 -2423601.190 10 0 59939 35100.00000 0 -11142972.769 22955176.056 807769.427 10 0 59939 36000.00000 0 -10842196.425 22761799.518 4023486.953 10 0 59939 36900.00000 0 -10428815.740 22177836.002 7161250.404 10 0 59939 37800.00000 0 -9960585.487 21201165.492 10160288.476 10 0 59939 38700.00000 0 -9495467.947 19843178.116 12962527.848 10 0 59939 39600.00000 0 -9089003.335 18128454.913 15513708.230 10 0 59939 40500.00000 0 -8791794.504 16093914.209 17764423.477 10 0 59939 41400.00000 0 -8647211.272 13787458.486 19671069.545 10 0 59939 42300.00000 0 -8689410.489 11266177.211 21196681.831 10 0 59939 43200.00000 0 -8941754.765 8594179.051 22311646.610 10 0 59939 44100.00000 0 -9415696.385 5840142.039 22994273.498 10 0 59939 45000.00000 0 -10110173.683 3074681.837 23231218.228 10 0 59939 45900.00000 0 -11011546.141 367645.633 23017747.665 10 0 59939 46800.00000 0 -12094072.275 -2214557.608 22357841.598 10 0 59939 47700.00000 0 -13320911.897 -4611480.964 21264128.598 10 0 59939 48600.00000 0 -14645612.597 -6770913.677 19757656.161 10 0 59939 49500.00000 0 -16014019.937 -8650811.707 17867498.209 10 0 59939 50400.00000 0 -17366532.834 -10220804.567 15630206.142 10 0 59939 51300.00000 0 -18640610.718 -11463215.645 13089112.622 10 0 59939 52200.00000 0 -19773427.860 -12373553.203 10293500.272 10 0 59939 53100.00000 0 -20704563.366 -12960451.152 7297650.501 10 0 59939 54000.00000 0 -21378613.159 -13245061.943 4159790.330 10 0 59939 54900.00000 0 -21747612.879 -13259927.059 940957.548 10 0 59939 55800.00000 0 -21773168.106 -13047372.962 -2296193.279 10 0 59939 56700.00000 0 -21428200.353 -12657500.804 -5488619.926 10 0 59939 57600.00000 0 -20698233.391 -12145855.810 -8574131.740 10 0 59939 58500.00000 0 -19582163.960 -11570876.159 -11492613.398 10 0 59939 59400.00000 0 -18092482.969 -10991230.782 -14187208.003 10 0 59939 60300.00000 0 -16254936.748 -10463160.277 -16605435.245 10 0 59939 61200.00000 0 -14107641.991 -10037934.963 -18700221.640 10 0 59939 62100.00000 0 -11699691.261 -9759538.833 -20430822.159 10 0 59939 63000.00000 0 -9089307.546 -9662678.299 -21763614.927 10 0 59939 63900.00000 0 -6341625.470 -9771200.430 -22672753.474 10 0 59939 64800.00000 0 -3526192.166 -10096987.668 -23140664.275 10 0 59939 65700.00000 0 -714292.423 -10639375.494 -23158380.489 10 0 59939 66600.00000 0 2023790.269 -11385117.162 -22725706.174 10 0 59939 67500.00000 0 4621462.919 -12308896.376 -21851208.700 10 0 59939 68400.00000 0 7018351.111 -13374365.630 -20552040.330 10 0 59939 69300.00000 0 9162561.655 -14535665.798 -18853593.274 10 0 59939 70200.00000 0 11012586.952 -15739362.436 -16788995.623 10 0 59939 71100.00000 0 12538773.510 -16926716.863 -14398458.493 10 0 59939 72000.00000 0 13724295.253 -18036196.183 -11728487.590 10 0 59939 72900.00000 0 14565593.213 -19006116.536 -8830974.843 10 0 59939 73800.00000 0 15072265.446 -19777308.502 -5762187.952 10 0 59939 74700.00000 0 15266413.898 -20295692.715 -2581677.727 10 0 59939 75600.00000 0 15181477.624 -20514657.772 648875.568 10 0 59939 76500.00000 0 14860602.981 -20397140.855 3866854.529 10 0 59939 77400.00000 0 14354620.570 -19917324.044 7009912.581 10 0 59939 78300.00000 0 13719714.834 -19061875.449 10017174.551 10 0 59939 79200.00000 0 13014884.766 -17830683.243 12830407.095 10 0 59939 80100.00000 0 12299302.529 -16237051.787 15395136.935 10 0 59939 81000.00000 0 11629680.759 -14307351.259 17661696.099 10 0 59939 81900.00000 0 11057758.687 -12080134.678 19586174.895 10 0 59939 82800.00000 0 10628012.113 -9604758.104 21131265.033 10 0 59939 83700.00000 0 10375682.809 -6939560.072 22266977.537 10 0 59939 84600.00000 0 10325209.735 -4149674.261 22971222.220 10 0 59939 85500.00000 0 10489127.854 -1304564.546 23230237.963 10 0 59940 0.00000 0 10867481.039 1524616.936 23038865.591 10 0 59940 900.00000 0 11447774.727 4267742.343 22400657.589 10 0 59940 1800.00000 0 12205470.916 6858376.482 21327822.204 10 0 59940 2700.00000 0 13105006.827 9236296.505 19841001.609 10 0 59940 3600.00000 0 14101295.635 11349755.309 17968887.269 10 0 59940 4500.00000 0 15141647.858 13157396.387 15747678.491 10 0 59940 5400.00000 0 16168033.948 14629740.212 13220393.202 10 0 59940 6300.00000 0 17119593.743 15750179.903 10436042.972 10 0 59940 7200.00000 0 17935287.451 16515444.106 7448687.363 10 0 59940 8100.00000 0 18556576.198 16935507.356 4316385.336 10 0 59940 9000.00000 0 18930018.261 17032951.433 1100063.941 10 0 59940 9900.00000 0 19009670.079 16841804.558 -2137673.280 10 0 59940 10800.00000 0 18759189.003 16405907.724 -5333774.243 10 0 59940 11700.00000 0 18153547.121 15776877.791 -8425977.619 10 0 59940 12600.00000 0 17180281.936 15011754.438 -11354037.934 10 0 59940 13500.00000 0 15840229.408 14170431.716 -14060911.250 10 0 59940 14400.00000 0 14147707.013 13312984.241 -16493877.057 10 0 59940 15300.00000 0 12130138.058 12497002.472 -18605573.379 10 0 59940 16200.00000 0 9827132.373 11775050.956 -20354924.197 10 0 59940 17100.00000 0 7289061.589 11192357.879 -21707940.807 10 0 59940 18000.00000 0 4575188.730 10784834.063 -22638381.399 10 0 59940 18900.00000 0 1751430.436 10577505.133 -23128256.443 10 0 59940 19800.00000 0 -1112154.581 10583422.737 -23168170.633 10 0 59940 20700.00000 0 -3944045.936 10803100.076 -22757495.511 10 0 59940 21600.00000 0 -6673999.313 11224494.673 -21904370.317 10 0 59940 22500.00000 0 -9235727.955 11823538.063 -20625531.911 10 0 59940 23400.00000 0 -11569416.951 12565189.058 -18945977.899 10 0 59940 24300.00000 0 -13623966.768 13404965.212 -16898470.212 10 0 59940 25200.00000 0 -15358874.010 14290887.164 -14522889.353 10 0 59940 26100.00000 0 -16745672.665 15165753.278 -11865452.340 10 0 59940 27000.00000 0 -17768877.631 15969648.354 -8977809.869 10 0 59940 27900.00000 0 -18426393.186 16642580.506 -5916040.449 10 0 59940 28800.00000 0 -18729371.278 17127135.099 -2739561.255 10 0 59940 29700.00000 0 -18701527.590 17371034.145 490023.098 10 0 59940 30600.00000 0 -18377945.738 17329493.609 3710111.632 10 0 59940 31500.00000 0 -17803421.210 16967279.774 6858314.852 10 0 59940 32400.00000 0 -17030415.633 16260378.423 9873656.345 10 0 59940 33300.00000 0 -16116707.880 15197206.859 12697745.342 10 0 59940 34200.00000 0 -15122840.899 13779317.866 15275898.082 10 0 59940 35100.00000 0 -14109471.276 12021565.733 17558187.168 10 0 59940 36000.00000 0 -13134732.307 9951726.683 19500399.484 10 0 59940 36900.00000 0 -12251720.543 7609588.507 21064885.077 10 0 59940 37800.00000 0 -11506210.459 5045545.913 22221281.456 10 0 59940 38700.00000 0 -10934692.386 2318758.286 22947100.078 10 0 59940 39600.00000 0 -10562815.476 -505055.431 23228164.048 10 0 59940 40500.00000 0 -10404300.793 -3356095.194 23058888.753 10 0 59940 41400.00000 0 -10460370.320 -6163130.807 22442399.696 10 0 59940 42300.00000 0 -10719716.428 -8856217.023 21390484.578 10 0 59940 43200.00000 0 -11159014.051 -11369361.598 19923379.546 10 0 59940 44100.00000 0 -11743955.250 -13643036.540 18069392.414 10 0 59940 45000.00000 0 -12430763.963 -15626428.654 15864368.745 10 0 59940 45900.00000 0 -13168128.391 -17279335.853 13351009.637 10 0 59940 46800.00000 0 -13899470.580 -18573629.949 10578053.152 10 0 59940 47700.00000 0 -14565457.994 -19494224.282 7599334.251 10 0 59940 48600.00000 0 -15106651.092 -20039505.126 4472740.860 10 0 59940 49500.00000 0 -15466174.495 -20221208.276 1259086.178 10 0 59940 50400.00000 0 -15592297.769 -20063745.656 -1979080.486 10 0 59940 51300.00000 0 -15440815.163 -19603010.316 -5178700.423 10 0 59940 52200.00000 0 -14977121.870 -18884710.562 -8277444.872 10 0 59940 53100.00000 0 -14177897.123 -17962304.249 -11214941.392 10 0 59940 54000.00000 0 -13032321.114 -16894621.506 -13933962.079 10 0 59940 54900.00000 0 -11542772.702 -15743277.574 -16381549.132 10 0 59940 55800.00000 0 -9724977.127 -14569986.330 -18510054.720 10 0 59940 56700.00000 0 -7607596.490 -13433889.167 -20278074.140 10 0 59940 57600.00000 0 -5231279.529 -12389012.896 -21651253.720 10 0 59940 58500.00000 0 -2647210.259 -11481964.541 -22602957.678 10 0 59940 59400.00000 0 84783.889 -10749960.349 -23114781.311 10 0 59940 60300.00000 0 2898485.348 -10219271.755 -23176901.146 10 0 59940 61200.00000 0 5723806.973 -9904153.056 -22788255.992 10 0 59940 62100.00000 0 8489474.859 -9806294.856 -21956556.284 10 0 59940 63000.00000 0 11125761.966 -9914824.997 -20698122.375 10 0 59940 63900.00000 0 13567159.107 -10206855.530 -19037555.768 10 0 59940 64800.00000 0 15754872.946 -10648551.293 -17007250.375 10 0 59940 65700.00000 0 17639048.058 -11196673.785 -14646753.840 10 0 59940 66600.00000 0 19180621.752 -11800534.216 -12001991.875 10 0 59940 67500.00000 0 20352735.936 -12404272.548 -9124370.973 10 0 59940 68400.00000 0 21141648.835 -12949365.877 -6069777.165 10 0 59940 69300.00000 0 21547110.273 -13377260.065 -2897490.475 10 0 59940 70200.00000 0 21582186.640 -13632013.561 330963.785 10 0 59940 71100.00000 0 21272544.555 -13662842.051 3553004.704 10 0 59940 72000.00000 0 20655224.688 -13426456.879 6706203.381 10 0 59940 72900.00000 0 19776958.284 -12889099.042 9729485.431 10 0 59940 73800.00000 0 18692097.749 -12028183.252 12564305.560 10 0 59940 74700.00000 0 17460248.426 -10833483.044 15155772.019 10 0 59940 75600.00000 0 16143700.810 -9307806.875 17453700.012 10 0 59940 76500.00000 0 14804770.386 -7467136.247 19413574.587 10 0 59940 77400.00000 0 13503155.865 -5340219.134 20997405.253 10 0 59940 78300.00000 0 12293425.580 -2967634.267 22174456.731 10 0 59940 79200.00000 0 11222736.342 -400363.525 22921842.418 10 0 59940 80100.00000 0 10328879.455 2302070.081 23224969.566 10 0 59940 81000.00000 0 9638735.080 5073823.582 23077827.710 10 0 59940 81900.00000 0 9167199.350 7845224.288 22483114.517 10 0 59940 82800.00000 0 8916629.319 10545427.575 21452195.980 10 0 59940 83700.00000 0 8876829.403 13105133.558 20004900.743 10 0 59940 84600.00000 0 9025580.655 15459251.101 18169151.194 10 0 59940 85500.00000 0 9329691.555 17549399.042 15980437.088 10 0 59941 0.00000 0 9746527.033 19326140.693 13481140.648 10 0 59941 900.00000 0 10225952.385 20750859.172 10719723.454 10 0 59941 1800.00000 0 10712610.059 21797192.319 7749793.372 10 0 59941 2700.00000 0 11148434.043 22451969.642 4629064.438 10 0 59941 3600.00000 0 11475294.652 22715608.782 1418233.040 10 0 59941 4500.00000 0 11637661.157 22601955.179 -1820208.716 10 0 59941 5400.00000 0 11585168.205 22137571.172 -5023198.410 10 0 59941 6300.00000 0 11274975.691 21360504.426 -8128342.591 10 0 59941 7200.00000 0 10673820.325 20318587.978 -11075144.375 10 0 59941 8100.00000 0 9759670.187 19067344.351 -13806194.116 10 0 59941 9000.00000 0 8522910.484 17667583.152 -16268298.640 10 0 59941 9900.00000 0 6967008.913 16182794.706 -18413525.860 10 0 59941 10800.00000 0 5108631.280 14676450.755 -20200143.694 10 0 59941 11700.00000 0 2977201.558 13209326.997 -21593434.560 10 0 59941 12600.00000 0 613924.334 11836960.935 -22566369.517 10 0 59941 13500.00000 0 -1929689.728 10607352.277 -23100129.279 10 0 59941 14400.00000 0 -4593733.825 9559002.412 -23184462.534 10 0 59941 15300.00000 0 -7312170.507 8719374.702 -22817875.390 10 0 59941 16200.00000 0 -10015358.218 8103839.196 -22007649.148 10 0 59941 17100.00000 0 -12632733.729 7715144.627 -20769686.933 10 0 59941 18000.00000 0 -15095538.883 7543438.265 -19128192.999 10 0 59941 18900.00000 0 -17339478.642 7566830.983 -17115191.680 10 0 59941 19800.00000 0 -19307200.506 7752482.078 -14769895.852 10 0 59941 20700.00000 0 -20950492.886 8058156.621 -12137937.725 10 0 59941 21600.00000 0 -22232112.059 8434188.398 -9270477.188 10 0 59941 22500.00000 0 -23127162.880 8825764.694 -6223205.274 10 0 59941 23400.00000 0 -23623977.054 9175435.848 -3055262.270 10 0 59941 24300.00000 0 -23724453.870 9425743.307 171908.432 10 0 59941 25200.00000 0 -23443850.616 9521855.153 3395748.601 10 0 59941 26100.00000 0 -22810032.836 9414097.988 6553792.529 10 0 59941 27000.00000 0 -21862216.939 9060278.592 9584870.430 10 0 59941 27900.00000 0 -20649258.632 8427697.713 12430285.005 10 0 59941 28800.00000 0 -19227559.305 7494771.322 15034938.952 10 0 59941 29700.00000 0 -17658678.056 6252191.054 17348392.380 10 0 59941 30600.00000 0 -16006748.948 4703574.671 19325830.606 10 0 59941 31500.00000 0 -14335810.885 2865578.506 20928924.466 10 0 59941 32400.00000 0 -12707160.821 767465.943 22126567.439 10 0 59941 33300.00000 0 -11176839.828 -1549851.714 22895476.090 10 0 59941 34200.00000 0 -9793356.103 -4035263.877 23220642.671 10 0 59941 35100.00000 0 -8595739.061 -6629340.714 23095631.345 10 0 59941 36000.00000 0 -7612005.182 -9266568.647 22522712.042 10 0 59941 36900.00000 0 -6858099.428 -11877850.453 21512828.769 10 0 59941 37800.00000 0 -6337356.498 -14393167.960 20085401.997 10 0 59941 38700.00000 0 -6040504.770 -16744298.172 18267967.640 10 0 59941 39600.00000 0 -5946213.374 -18867470.693 16095658.242 10 0 59941 40500.00000 0 -6022160.010 -20705856.276 13610534.902 10 0 59941 41400.00000 0 -6226575.266 -22211782.644 10860781.553 10 0 59941 42300.00000 0 -6510198.787 -23348584.405 7899776.206 10 0 59941 43200.00000 0 -6818564.888 -24092008.888 4785056.467 10 0 59941 44100.00000 0 -7094520.742 -24431117.951 1577199.216 10 0 59941 45000.00000 0 -7280869.870 -24368646.926 -1661363.454 10 0 59941 45900.00000 0 -7323027.867 -23920804.841 -4867568.311 10 0 59941 46800.00000 0 -7171576.292 -23116523.885 -7978960.170 10 0 59941 47700.00000 0 -6784604.786 -21996189.654 -10934920.683 10 0 59941 48600.00000 0 -6129740.334 -20609906.062 -13677861.419 10 0 59941 49500.00000 0 -5185775.923 -19015368.715 -16154356.693 10 0 59941 50400.00000 0 -3943828.091 -17275437.352 -18316192.867 10 0 59941 51300.00000 0 -2407973.078 -15455510.602 -20121312.910 10 0 59941 52200.00000 0 -595333.627 -13620814.526 -21534637.418 10 0 59941 53100.00000 0 1464387.936 -11833719.755 -22528745.966 10 0 59941 54000.00000 0 3729911.242 -10151200.317 -23084405.891 10 0 59941 54900.00000 0 6149872.319 -8622540.758 -23190938.795 10 0 59941 55800.00000 0 8664748.413 -7287387.280 -22846418.380 10 0 59941 56700.00000 0 11209132.787 -6174223.537 -22057696.687 10 0 59941 57600.00000 0 13714264.613 -5299333.578 -20840259.087 10 0 59941 58500.00000 0 16110708.455 -4666293.662 -19217911.684 10 0 59941 59400.00000 0 18331071.957 -4266012.315 -17222307.932 10 0 59941 60300.00000 0 20312648.923 -4077314.859 -14892324.233 10 0 59941 61200.00000 0 21999878.175 -4068045.962 -12273297.146 10 0 59941 62100.00000 0 23346516.549 -4196642.004 -9416137.375 10 0 59941 63000.00000 0 24317436.405 -4414105.577 -6376337.946 10 0 59941 63900.00000 0 24889973.712 -4666297.780 -3212896.066 10 0 59941 64800.00000 0 25054771.706 -4896450.800 12830.375 10 0 59941 65700.00000 0 24816086.091 -5047794.348 3238309.518 10 0 59941 66600.00000 0 24191540.203 -5066184.968 6401042.499 10 0 59941 67500.00000 0 23211341.408 -4902627.326 9439767.612 10 0 59941 68400.00000 0 21916992.278 -4515581.344 12295638.752 10 0 59941 69300.00000 0 20359550.906 -3872958.122 14913355.895 10 0 59941 70200.00000 0 18597513.185 -2953720.706 17242226.487 10 0 59941 71100.00000 0 16694405.251 -1749022.152 19237138.127 10 0 59941 72000.00000 0 14716186.010 -262832.619 20859424.579 10 0 59941 72900.00000 0 12728567.271 1487971.774 22077609.295 10 0 59941 73800.00000 0 10794362.096 3474063.473 22868012.831 10 0 59941 74700.00000 0 8970970.869 5654644.121 23215212.887 10 0 59941 75600.00000 0 7308108.710 7978912.519 23112348.307 10 0 59941 76500.00000 0 5845868.051 10387960.998 22561260.945 10 0 59941 77400.00000 0 4613196.569 12817023.425 21572472.080 10 0 59941 78300.00000 0 3626853.614 15197983.353 20164992.862 10 0 59941 79200.00000 0 2890888.683 17462039.627 18365971.211 10 0 59941 80100.00000 0 2396664.030 19542419.599 16210180.564 10 0 59941 81000.00000 0 2123420.810 21377027.516 13739358.929 10 0 59941 81900.00000 0 2039365.411 22910917.687 11001409.641 10 0 59941 82800.00000 0 2103230.622 24098488.506 8049478.306 10 0 59941 83700.00000 0 2266245.929 24905304.690 4940923.138 10 0 59941 84600.00000 0 2474433.519 25309470.186 1736198.386 10 0 59941 85500.00000 0 2671132.309 25302492.834 -1502327.075 10 0 59942 0.00000 0 2799642.123 24889603.420 -4711592.101 10 0 59942 900.00000 0 2805874.646 24089514.473 -7829083.446 10 0 59942 1800.00000 0 2640897.055 22933629.131 -10794063.890 10 0 59942 2700.00000 0 2263258.920 21464732.530 -13548768.840 10 0 59942 3600.00000 0 1641001.836 19735221.611 -16039542.401 10 0 59942 4500.00000 0 753265.112 17804948.344 -18217891.347 10 0 59942 5400.00000 0 -408581.834 15738767.988 -20041435.343 10 0 59942 6300.00000 0 -1840329.408 13603896.275 -21474734.484 10 0 59942 7200.00000 0 -3524866.625 11467187.343 -22489977.888 10 0 59942 8100.00000 0 -5432671.903 9392447.092 -23067520.244 10 0 59942 9000.00000 0 -7522835.590 7437894.628 -23196256.468 10 0 59942 9900.00000 0 -9744571.397 5653877.859 -22873827.903 10 0 59942 10800.00000 0 -12039153.460 4080937.921 -22106656.973 10 0 59942 11700.00000 0 -14342198.023 2748302.140 -20909810.504 10 0 59942 12600.00000 0 -16586194.318 1672866.896 -19306695.214 10 0 59942 13500.00000 0 -18703179.102 858710.928 -17328592.018 10 0 59942 14400.00000 0 -20627443.437 297157.267 -15014038.807 10 0 59942 15300.00000 0 -22298159.060 -32620.975 -12408074.159 10 0 59942 16200.00000 0 -23661815.295 -162478.552 -9561357.041 10 0 59942 17100.00000 0 -24674365.453 -133708.820 -6529179.785 10 0 59942 18000.00000 0 -25302993.861 4944.292 -3370393.736 10 0 59942 18900.00000 0 -25527430.648 199588.091 -146268.467 10 0 59942 19800.00000 0 -25340760.271 393698.861 3080693.362 10 0 59942 20700.00000 0 -24749690.938 530748.877 6247962.552 10 0 59942 21600.00000 0 -23774274.496 556831.728 9294188.245 10 0 59942 22500.00000 0 -22447089.137 423175.294 12160378.223 10 0 59942 23400.00000 0 -20811919.470 88436.667 14791032.297 10 0 59942 24300.00000 0 -18921989.172 -479317.523 17135207.603 10 0 59942 25200.00000 0 -16837819.675 -1301028.618 19147496.111 10 0 59942 26100.00000 0 -14624803.610 -2385528.073 20788896.275 10 0 59942 27000.00000 0 -12350593.203 -3728931.702 22027562.896 10 0 59942 27900.00000 0 -10082411.206 -5314572.530 22839421.501 10 0 59942 28800.00000 0 -7884395.084 -7113476.453 23208635.811 10 0 59942 29700.00000 0 -5815083.672 -9085362.733 23127919.537 10 0 59942 30600.00000 0 -3925149.722 -11180129.664 22598686.281 10 0 59942 31500.00000 0 -2255471.876 -13339765.600 21631034.077 10 0 59942 32400.00000 0 -835625.675 -15500607.838 20243563.933 10 0 59942 33300.00000 0 317143.770 -17595857.028 18463034.641 10 0 59942 34200.00000 0 1198424.565 -19558243.652 16323859.123 10 0 59942 35100.00000 0 1816595.089 -21322736.172 13867450.582 10 0 59942 36000.00000 0 2192236.869 -22829178.031 11141429.776 10 0 59942 36900.00000 0 2357027.638 -24024742.829 8198707.695 10 0 59942 37800.00000 0 2352161.114 -24866104.057 5096460.732 10 0 59942 38700.00000 0 2226360.288 -25321227.175 1895017.938 10 0 59942 39600.00000 0 2033568.639 -25370707.335 -1343317.717 10 0 59942 40500.00000 0 1830417.847 -25008595.096 -4555490.510 10 0 59942 41400.00000 0 1673580.460 -24242674.091 -7678930.764 10 0 59942 42300.00000 0 1617121.202 -23094177.998 -10652785.785 10 0 59942 43200.00000 0 1709960.887 -21596958.170 -13419117.591 10 0 59942 44100.00000 0 1993562.149 -19796136.783 -15924042.773 10 0 59942 45000.00000 0 2499936.639 -17746302.472 -18118791.047 10 0 59942 45900.00000 0 3250059.494 -15509324.824 -19960661.075 10 0 59942 46800.00000 0 4252759.285 -13151880.196 -21413854.438 10 0 59942 47700.00000 0 5504131.142 -10742793.429 -22450171.399 10 0 59942 48600.00000 0 6987498.359 -8350307.317 -23049555.193 10 0 59942 49500.00000 0 8673924.418 -6039394.378 -23200474.820 10 0 59942 50400.00000 0 10523253.935 -3869223.212 -22900139.619 10 0 59942 51300.00000 0 12485638.786 -1890884.668 -22154542.378 10 0 59942 52200.00000 0 14503485.357 -145471.669 -20978331.001 10 0 59942 53100.00000 0 16513741.167 1337408.589 -19394512.094 10 0 59942 54000.00000 0 18450425.157 2540629.845 -17433992.974 10 0 59942 54900.00000 0 20247295.851 3460009.987 -15134971.591 10 0 59942 55800.00000 0 21840545.914 4104225.133 -12542186.725 10 0 59942 56700.00000 0 23171410.801 4494180.538 -9706043.381 10 0 59942 57600.00000 0 24188582.824 4661866.908 -6681630.584 10 0 59942 58500.00000 0 24850330.229 4648752.063 -3527650.863 10 0 59942 59400.00000 0 25126233.321 4503777.212 -305282.266 10 0 59942 60300.00000 0 24998465.716 4281043.433 2923005.108 10 0 59942 61200.00000 0 24462567.822 4037286.562 6094655.107 10 0 59942 62100.00000 0 23527680.826 3829247.409 9148231.012 10 0 59942 63000.00000 0 22216231.877 3711048.217 12024597.595 10 0 59942 63900.00000 0 20563083.891 3731685.779 14668057.337 10 0 59942 64800.00000 0 18614185.429 3932746.606 17027419.599 10 0 59942 65700.00000 0 16424776.629 4346440.076 19056982.934 10 0 59942 66600.00000 0 14057225.294 4994032.214 20717412.369 10 0 59942 67500.00000 0 11578582.290 5884746.127 21976495.623 10 0 59942 68400.00000 0 9057956.651 7015175.878 22809764.428 10 0 59942 69300.00000 0 6563818.263 8369239.368 23200969.420 10 0 59942 70200.00000 0 4161338.737 9918673.670 23142399.703 10 0 59942 71100.00000 0 1909879.628 11624053.978 22635040.750 10 0 59942 72000.00000 0 -139268.696 13436295.536 21688567.044 10 0 59942 72900.00000 0 -1944804.392 15298577.925 20321168.704 10 0 59942 73800.00000 0 -3476908.471 17148613.292 18559214.207 10 0 59942 74700.00000 0 -4718253.980 18921165.294 16436754.345 10 0 59942 75600.00000 0 -5664487.958 20550714.615 13994875.542 10 0 59942 76500.00000 0 -6324165.818 21974160.081 11280913.666 10 0 59942 77400.00000 0 -6718140.661 23133442.101 8347542.499 10 0 59942 78300.00000 0 -6878433.088 23977977.775 5251753.799 10 0 59942 79200.00000 0 -6846629.190 24466804.304 2053748.409 10 0 59942 80100.00000 0 -6671874.651 24570339.062 -1184239.732 10 0 59942 81000.00000 0 -6408550.486 24271680.717 -4399163.224 10 0 59942 81900.00000 0 -6113729.832 23567394.997 -7528399.711 10 0 59942 82800.00000 0 -5844524.848 22467750.658 -10510983.795 10 0 59942 83700.00000 0 -5655437.736 20996394.704 -13288806.980 10 0 59942 84600.00000 0 -5595829.742 19189479.872 -15807760.969 10 0 59942 85500.00000 0 -5707616.976 17094280.949 -18018800.753 99